Wetbulb
60.38 60.46 60.33 60.20 60.17 59.92 59.96 60.01 60.03 60.00 60.26 60.39 60.51 60.67 60.66 60.88 60.35 57.49 50.84 54.66 57.30 62.39 63.87 57.36 55.31 54.42 54.73 52.24 53.41 51.89 42.34 38.29 39.81 39.95 41.38 46.45 44.53 48.04 49.63 47.29 48.09 49.40 48.40 50.62 52.77
59.75 59.57 59.36 59.33 59.45 59.43 59.52 59.82 59.78 59.80 60.15 60.30 60.40 60.35 60.49 60.27 57.15 52.70 58.64 61.21 60.54 63.36 56.89 52.34 50.56 52.51 48.77 48.95 49.87 45.42 39.60 40.39 43.98 44.02 42.89 45.67 45.32 45.72 45.41 45.87 46.30 48.14 51.48 52.47 52.08
59.13 58.88 58.94 58.92 58.87 58.90 58.93 58.98 59.33 59.48 59.83 60.15 60.19 60.17 60.41 58.70 53.19 50.11 62.63 60.63 60.29 61.75 57.44 54.48 53.12 51.50 47.33 48.13 46.20 44.87 40.02 44.50 45.14 46.28 46.45 44.85 44.73 47.25 44.20 42.48 45.85 45.35 48.02 51.13 51.02
59.01 58.82 58.67 58.57 58.56 58.56 58.55 58.80 59.25 59.53 59.66 59.91 59.88 59.79 59.93 57.37 42.39 53.15 62.73 59.73 58.86 57.29 54.82 52.79 50.58 46.59 44.71 41.92 45.70 40.68 45.45 45.98 46.05 46.75 45.75 43.67 46.04 43.80 44.75 45.22 48.77 49.16 50.34 50.82 49.98
58.70 58.50 58.21 58.01 58.05 58.11 58.22 58.67 59.30 59.65 59.57 59.39 59.32 59.48 56.89 51.55 48.78 55.65 62.16 58.29 55.59 55.59 52.51 50.84 48.14 46.14 42.02 43.25 44.01 41.16 43.39 45.35 46.38 45.91 45.24 46.02 43.59 43.68 45.48 49.73 49.59 50.86 50.49 49.65 49.84
58.32 58.00 57.60 57.60 57.64 58.09 58.12 58.50 58.80 58.91 58.88 58.81 58.85 58.85 54.46 46.52 53.22 55.22 54.31 54.26 54.28 53.76 52.08 51.48 49.16 49.32 45.85 43.77 42.22 43.56 43.47 43.82 45.59 45.41 45.73 43.57 43.39 45.91 47.03 49.71 50.81 50.99 50.10 50.09 49.85
57.85 57.49 57.81 57.65 57.60 57.56 58.01 58.00 57.84 57.92 58.29 58.44 58.80 56.87 51.63 48.86 54.48 54.25 55.00 53.42 54.26 53.83 50.94 52.64 52.15 48.63 47.37 43.12 45.52 43.74 39.75 42.59 44.20 44.27 43.41 44.70 41.94 40.96 45.27 48.53 47.22 48.02 50.42 51.99 52.00
57.39 57.29 57.59 57.46 57.69 57.53 57.67 57.18 57.45 57.91 57.97 58.49 58.76 55.60 49.62 55.73 54.13 53.13 54.55 53.89 54.95 55.48 54.04 54.03 53.90 50.20 47.15 46.64 43.77 40.11 39.18 34.84 41.74 43.29 44.46 42.48 35.51 40.35 44.72 43.59 42.52 43.40 45.95 49.10 51.19
56.93 56.78 56.78 57.23 57.27 57.27 57.35 56.40 57.43 58.73 58.03 58.24 56.08 53.24 46.91 54.97 51.66 52.17 53.65 50.98 52.54 54.00 54.79 53.58 51.55 46.64 45.19 38.36 35.15 36.71 30.18 34.51 38.22 43.43 42.89 40.60 34.86 40.26 43.62 41.98 40.33 40.00 41.65 43.88 48.56
56.92 56.50 56.51 56.73 56.85 56.82 56.88 55.32 58.24 56.39 57.11 56.73 53.56 48.90 49.75 47.76 51.28 51.58 53.46 52.74 50.73 50.82 50.07 48.10 45.41 40.53 37.84 34.85 25.95 29.96 31.01 34.58 34.36 39.49 40.48 36.32 34.42 38.40 40.40 39.46 38.24 38.48 38.56 41.81 44.20
56.58 55.91 56.01 56.33 56.44 56.69 55.98 53.81 49.63 50.08 50.31 45.79 46.93 46.51 48.70 51.36 52.52 51.38 52.90 50.63 50.15 46.78 39.98 43.79 38.08 31.90 35.26 36.50 37.26 36.15 34.24 33.89 36.58 40.97 37.61 34.95 34.52 35.75 37.99 36.93 36.83 36.36 35.18 41.05 43.67
56.23 55.51 55.64 55.90 56.07 56.28 54.70 48.77 47.61 48.08 43.58 49.72 49.72 49.19 50.73 50.95 47.01 49.79 52.36 46.17 45.38 40.12 42.70 39.04 32.97 38.09 40.55 39.81 37.34 36.48 33.59 33.58 37.93 40.66 38.12 35.98 33.11 35.21 35.87 35.49 36.75 34.55 36.76 41.73 43.55
55.82 55.29 55.28 55.33 55.41 54.33 50.23 48.77 53.21 52.45 44.63 47.79 49.53 48.55 48.26 49.74 45.92 46.54 48.95 46.26 42.77 40.54 39.01 35.23 37.15 41.13 39.66 37.03 35.35 35.00 30.62 31.39 33.75 38.99 39.85 36.04 33.18 33.95 36.74 36.65 38.21 38.69 39.67 41.37 42.34
55.53 55.19 54.94 54.32 53.10 52.63 49.43 52.33 53.60 53.01 42.66 41.44 45.46 47.86 49.21 48.61 45.00 49.89 49.99 46.29 44.16 38.93 39.28 37.08 39.87 38.98 37.44 35.65 35.48 31.47 36.13 36.78 37.16 34.50 27.04 35.52 22.98 30.78 34.14 34.10 35.90 36.45 37.69 38.74 40.18
55.21 54.96 54.52 54.43 50.95 50.15 50.76 52.93 53.42 49.54 34.48 43.06 45.18 51.42 48.14 45.16 45.09 46.41 48.99 45.99 40.63 39.31 38.36 35.54 35.58 35.78 34.83 34.84 36.96 34.57 38.11 35.86 35.85 33.12 32.06 31.59 26.35 28.29 33.41 31.08 33.16 34.86 36.24 37.68 38.95
54.99 54.59 53.04 53.46 53.47 52.41 53.12 52.68 50.11 41.71 27.69 39.37 44.55 42.83 42.39 44.31 44.29 44.77 44.96 45.94 44.56 39.92 39.65 37.16 39.66 37.91 35.44 38.25 38.68 39.20 36.09 35.90 35.22 32.07 24.69 28.27 26.72 23.53 27.89 30.73 32.94 34.26 35.28 36.32 37.52
54.68 54.05 51.56 52.47 49.37 52.84 52.57 48.98 41.47 34.20 41.02 38.39 39.19 41.78 39.94 40.10 41.26 40.77 40.11 37.93 34.80 30.47 31.68 37.65 36.14 37.65 38.93 35.38 38.22 37.25 31.61 25.11 22.82 24.17 22.52 30.52 26.60 25.89 31.99 33.67 33.67 32.93 33.48 34.78 35.64
54.01 52.83 53.31 52.49 53.63 52.38 50.68 43.87 33.93 37.82 37.68 42.09 40.91 40.37 37.14 38.39 38.93 39.02 37.08 35.47 38.09 36.05 31.36 27.65 27.66 34.90 38.00 35.28 31.99 32.95 29.44 22.53 20.08 19.37 21.86 31.16 23.12 26.84 34.53 35.41 35.09 34.98 34.13 34.17 33.87
52.65 53.86 51.75 53.18 53.02 51.29 46.58 39.75 36.30 36.95 40.35 38.83 39.55 35.55 36.55 38.29 36.60 36.56 34.51 35.34 36.78 36.51 28.95 29.07 29.75 36.21 36.94 37.56 36.34 33.05 26.65 30.62 26.33 28.00 21.46 25.49 28.06 32.35 35.12 33.95 33.58 32.76 32.84 31.93 32.24
48.58 50.36 50.44 52.16 52.28 49.26 43.16 40.84 39.33 41.30 41.51 40.38 33.91 35.88 33.14 35.64 34.79 34.28 33.31 36.73 37.96 38.22 36.43 32.23 25.47 34.99 36.58 36.02 36.65 33.40 34.10 25.89 25.96 20.82 20.32 23.23 24.30 24.87 29.80 30.85 32.62 31.42 30.34 30.78 31.85
48.83 46.23 49.61 51.59 50.00 46.02 39.55 40.29 40.55 41.83 42.32 38.63 36.26 35.18 35.30 34.47 34.09 33.37 33.42 36.64 38.85 38.73 36.51 33.70 31.34 31.23 34.17 31.73 30.87 32.62 30.86 31.32 29.26 25.86 20.06 19.29 22.38 32.22 30.69 32.34 31.44 31.36 31.57 30.09 30.00
46.04 46.29 49.39 50.38 44.46 43.71 40.69 40.85 40.01 41.41 41.90 40.37 38.70 37.56 35.18 35.31 33.47 33.75 33.36 35.41 39.62 38.72 34.14 34.54 30.98 25.17 30.95 33.86 35.02 33.46 31.43 31.00 24.86 23.73 24.37 22.71 21.53 33.51 32.34 32.72 33.26 31.01 31.75 30.48 30.14
46.35 43.39 48.87 47.89 41.01 42.23 39.66 40.20 40.93 39.96 39.32 39.29 37.94 39.21 38.33 34.83 31.34 34.68 35.05 39.83 39.71 37.49 33.65 35.42 30.40 23.20 25.80 28.94 32.37 30.87 33.28 32.83 31.29 28.90 23.31 20.96 22.21 33.32 31.67 30.79 31.47 29.10 29.40 29.54 29.91
42.78 41.84 43.50 43.08 39.77 37.18 39.48 40.43 38.39 40.71 40.11 40.11 38.59 38.67 36.51 34.44 36.36 33.19 33.97 37.91 38.34 37.48 40.67 38.54 31.82 28.65 23.89 27.64 30.89 28.79 30.12 31.75 30.28 23.65 24.97 25.99 25.81 28.70 30.57 30.63 29.15 28.31 27.97 27.86 27.71
41.53 42.70 41.70 40.38 39.44 39.02 37.20 37.06 37.13 36.94 39.51 39.84 37.30 37.50 35.69 32.03 32.22 32.18 34.93 35.68 37.12 39.04 36.29 35.25 28.16 30.75 31.46 32.59 31.66 31.04 31.10 31.56 27.30 28.09 24.21 27.49 28.29 28.95 29.09 27.05 26.89 27.77 28.40 27.53 26.60
40.37 39.11 38.70 39.00 38.00 38.24 36.58 36.10 37.39 39.68 38.88 37.04 35.16 38.49 37.26 33.18 33.62 30.63 32.44 33.43 33.26 34.67 34.28 34.55 27.55 30.11 27.80 32.69 31.33 29.14 32.56 32.83 32.47 32.44 30.79 30.63 29.22 29.74 28.47 28.30 27.86 26.33 26.87 25.86 25.44
43.31 41.01 40.47 39.60 37.66 35.62 37.55 38.01 39.48 40.71 41.67 41.07 37.97 36.34 34.85 36.08 36.61 36.67 35.37 35.89 34.08 32.53 33.19 32.97 30.72 28.02 25.37 30.14 29.86 26.09 30.24 30.48 31.50 30.05 29.29 24.74 26.60 29.31 27.66 27.60 25.67 24.99 25.48 24.74 24.69
MSLP
1021.68 1021.30 1020.99 1020.64 1020.50 1020.21 1019.89 1019.52 1019.30 1019.08 1018.87 1018.63 1018.34 1018.06 1017.84 1017.52 1016.73 1016.30 1015.83 1016.24 1016.05 1015.89 1015.63 1014.90 1014.10 1014.20 1014.04 1014.07 1014.49 1014.41 1014.29 1013.63 1013.46 1013.58 1013.48 1013.24 1013.23 1013.18 1012.92 1012.74 1012.46 1012.25 1012.15 1012.03 1011.20
1021.75 1021.42 1021.12 1020.70 1020.52 1020.27 1019.91 1019.42 1019.18 1018.98 1018.72 1018.48 1018.25 1018.02 1017.82 1017.55 1016.82 1015.97 1016.05 1015.91 1015.94 1015.85 1015.52 1015.10 1014.77 1014.40 1014.01 1014.17 1014.25 1014.54 1014.60 1014.06 1014.04 1014.00 1013.94 1013.84 1013.91 1013.65 1013.41 1013.04 1012.71 1012.20 1011.74 1011.59 1011.47
1021.97 1021.57 1021.20 1020.85 1020.47 1020.21 1019.78 1019.30 1018.96 1018.82 1018.60 1018.37 1018.13 1017.96 1017.73 1017.43 1016.65 1015.71 1015.79 1015.82 1015.80 1015.84 1015.56 1015.28 1014.82 1014.38 1014.09 1013.81 1014.03 1014.61 1014.79 1014.43 1014.20 1014.26 1014.33 1014.28 1014.25 1013.86 1013.64 1013.39 1012.93 1012.45 1012.05 1011.46 1011.38
1022.09 1021.72 1021.33 1020.93 1020.46 1020.06 1019.72 1019.21 1018.83 1018.60 1018.40 1018.22 1018.10 1017.88 1017.70 1017.14 1016.50 1015.75 1015.81 1015.86 1015.94 1015.86 1015.54 1015.12 1014.80 1014.54 1014.45 1014.36 1014.39 1014.64 1014.47 1014.40 1014.26 1014.21 1014.43 1014.42 1014.26 1014.18 1014.01 1013.66 1012.99 1012.50 1012.05 1011.75 1011.52
1022.16 1021.82 1021.45 1021.02 1020.49 1019.94 1019.55 1019.09 1018.60 1018.31 1018.18 1018.07 1018.04 1018.01 1017.72 1016.85 1015.80 1015.97 1015.93 1015.90 1015.83 1015.74 1015.37 1015.29 1015.09 1015.07 1015.16 1014.89 1014.62 1014.41 1014.55 1014.44 1014.23 1014.30 1014.48 1014.32 1014.68 1014.48 1014.74 1014.07 1013.22 1012.53 1012.18 1011.96 1011.79
1022.33 1021.88 1021.35 1020.83 1020.30 1019.74 1019.26 1018.79 1018.28 1018.01 1017.81 1017.77 1017.80 1017.94 1017.64 1016.39 1015.45 1015.63 1015.76 1015.78 1015.69 1015.62 1015.40 1015.39 1015.50 1015.57 1015.45 1015.16 1014.82 1014.65 1014.45 1014.31 1014.30 1014.48 1014.34 1015.02 1015.50 1015.19 1015.71 1015.12 1014.10 1013.56 1012.77 1011.93 1011.65
1022.26 1021.74 1021.22 1020.69 1020.06 1019.54 1018.99 1018.42 1017.97 1017.69 1017.53 1017.50 1017.64 1017.58 1016.92 1016.20 1015.59 1015.69 1015.70 1015.91 1015.88 1015.82 1015.79 1015.66 1015.94 1015.91 1015.47 1014.99 1014.54 1014.59 1014.61 1013.91 1014.38 1014.58 1014.65 1014.72 1015.97 1017.11 1017.37 1016.38 1016.09 1015.33 1014.18 1013.21 1012.76
1022.38 1021.84 1021.26 1020.61 1019.84 1019.29 1018.77 1018.24 1017.90 1017.64 1017.52 1017.55 1017.66 1017.25 1016.43 1015.90 1015.76 1015.66 1015.53 1015.54 1015.79 1015.99 1016.05 1016.06 1016.12 1016.07 1015.65 1014.89 1014.45 1014.72 1014.16 1014.50 1014.84 1014.68 1014.52 1014.95 1016.84 1017.58 1018.11 1017.39 1017.60 1016.90 1015.90 1014.85 1014.22
1022.43 1021.91 1021.29 1020.61 1019.79 1018.98 1018.55 1018.22 1018.01 1017.86 1017.73 1017.60 1017.62 1016.98 1016.34 1016.05 1015.90 1015.94 1015.95 1015.89 1015.83 1016.00 1016.01 1016.02 1016.18 1015.87 1015.38 1015.34 1014.92 1015.05 1015.31 1015.12 1014.89 1015.11 1015.39 1016.18 1017.54 1018.77 1019.29 1018.72 1018.87 1018.38 1017.48 1016.63 1015.13
1022.53 1021.95 1021.24 1020.50 1019.84 1018.97 1018.24 1018.10 1017.97 1018.03 1017.73 1017.22 1016.92 1017.06 1016.19 1016.30 1016.21 1016.25 1015.95 1016.05 1015.85 1015.81 1015.93 1015.96 1015.97 1016.00 1015.94 1016.04 1016.29 1016.09 1015.99 1015.53 1015.44 1015.66 1015.87 1016.96 1018.07 1019.45 1020.11 1019.97 1020.41 1019.64 1018.45 1016.95 1016.12
1022.71 1022.02 1021.29 1020.69 1019.91 1018.83 1017.87 1018.17 1018.55 1018.33 1017.58 1017.63 1017.40 1016.93 1016.59 1016.55 1016.37 1016.11 1016.08 1015.85 1015.81 1015.83 1015.78 1015.66 1016.13 1016.37 1016.56 1016.59 1016.53 1016.16 1016.10 1015.75 1015.52 1015.50 1015.95 1016.81 1018.30 1019.70 1020.78 1021.08 1020.77 1020.23 1019.30 1017.75 1016.16
1022.76 1022.09 1021.35 1020.77 1020.16 1019.27 1018.48 1019.31 1020.81 1021.01 1019.31 1017.72 1017.47 1017.04 1016.80 1016.83 1016.41 1016.05 1016.02 1016.00 1015.68 1015.67 1015.54 1016.04 1016.30 1016.55 1016.35 1016.14 1016.31 1015.72 1015.93 1015.96 1015.60 1015.50 1015.99 1016.75 1018.56 1020.12 1020.77 1021.86 1021.90 1021.20 1019.99 1018.45 1016.70
1022.80 1022.16 1021.35 1020.60 1020.08 1019.86 1020.20 1021.01 1021.15 1021.05 1020.04 1017.83 1017.39 1017.13 1017.12 1017.12 1016.63 1016.44 1016.40 1016.22 1015.95 1015.83 1015.94 1015.99 1016.43 1016.43 1016.27 1016.13 1016.48 1016.17 1016.60 1016.54 1016.29 1015.82 1015.68 1016.29 1018.17 1019.41 1019.99 1021.48 1021.77 1021.05 1020.21 1018.78 1018.36
1022.88 1022.31 1021.49 1020.47 1020.18 1020.09 1020.74 1021.18 1021.04 1021.02 1019.91 1018.46 1017.37 1017.28 1017.18 1017.11 1017.02 1016.86 1016.75 1016.83 1016.08 1016.20 1016.28 1016.41 1016.37 1016.62 1016.55 1016.60 1016.98 1016.52 1016.85 1016.88 1016.53 1016.27 1015.83 1016.06 1018.09 1018.98 1019.93 1020.95 1021.15 1021.36 1020.56 1020.21 1019.72
1023.01 1022.49 1021.76 1021.34 1021.21 1020.62 1021.41 1021.19 1021.06 1020.90 1019.73 1018.44 1017.30 1016.87 1016.72 1017.14 1017.04 1016.97 1017.06 1016.73 1016.76 1016.82 1016.93 1016.96 1016.94 1016.99 1016.89 1016.97 1017.04 1016.89 1016.73 1017.16 1016.96 1016.82 1016.60 1016.74 1017.92 1019.82 1020.30 1020.95 1021.74 1021.95 1021.82 1021.67 1020.92
1023.03 1022.60 1022.02 1021.24 1021.09 1021.51 1021.33 1021.09 1021.06 1020.46 1019.53 1018.31 1017.41 1017.03 1016.68 1016.57 1016.73 1016.67 1016.85 1016.91 1016.74 1016.91 1016.81 1016.91 1017.20 1017.31 1017.39 1016.94 1016.87 1016.86 1016.56 1016.67 1016.73 1017.07 1017.39 1017.77 1018.65 1020.48 1021.36 1022.28 1022.59 1022.71 1022.52 1022.68 1022.45
1023.04 1022.71 1022.26 1021.78 1021.61 1021.30 1021.22 1020.96 1020.49 1019.57 1018.81 1018.36 1017.88 1017.43 1017.17 1016.75 1016.71 1016.95 1016.99 1017.18 1017.58 1017.72 1017.59 1017.44 1017.68 1017.75 1017.69 1017.32 1016.95 1017.40 1017.28 1017.53 1017.65 1017.56 1017.75 1018.00 1019.02 1021.20 1022.00 1022.48 1022.86 1023.35 1023.51 1023.46 1023.53
1022.93 1022.60 1021.92 1021.72 1021.59 1021.35 1020.98 1020.66 1020.13 1019.55 1018.99 1018.71 1018.20 1017.83 1017.65 1017.43 1017.12 1016.97 1017.04 1017.40 1018.00 1018.37 1018.48 1018.44 1018.19 1018.12 1018.21 1018.50 1018.60 1018.47 1018.52 1019.05 1019.18 1018.49 1018.18 1018.09 1019.70 1021.00 1021.79 1022.46 1022.84 1023.24 1023.73 1023.89 1023.90
1022.71 1021.76 1021.57 1021.57 1021.64 1021.42 1020.97 1020.46 1020.05 1019.78 1019.51 1019.14 1018.10 1017.72 1017.31 1017.49 1017.39 1017.16 1017.12 1017.64 1018.46 1018.73 1019.03 1018.86 1018.48 1018.33 1018.43 1018.56 1018.91 1018.63 1018.88 1019.45 1019.77 1018.58 1018.87 1018.68 1020.33 1021.50 1022.20 1023.08 1023.74 1024.23 1024.40 1024.65 1024.74
1023.25 1022.19 1021.61 1021.63 1021.54 1021.50 1021.07 1020.23 1019.81 1019.79 1019.68 1019.53 1019.18 1018.73 1018.32 1018.04 1017.95 1017.55 1017.41 1018.18 1018.67 1019.09 1019.19 1019.43 1019.50 1018.55 1018.51 1018.64 1018.74 1018.90 1019.22 1019.56 1019.93 1020.03 1019.54 1018.85 1019.70 1021.07 1022.45 1023.47 1024.22 1024.72 1025.20 1025.60 1025.68
1023.46 1022.66 1021.79 1021.57 1021.70 1021.41 1020.96 1020.32 1019.95 1019.81 1019.93 1019.79 1019.42 1019.02 1018.66 1018.59 1018.60 1018.30 1017.99 1018.86 1018.83 1019.18 1019.37 1019.51 1019.68 1019.29 1019.15 1018.81 1018.66 1018.91 1019.06 1019.40 1019.85 1020.29 1020.54 1020.46 1021.02 1021.73 1022.86 1023.77 1024.52 1025.13 1025.61 1026.02 1026.28
1023.57 1023.06 1021.92 1021.53 1021.79 1021.06 1020.82 1020.38 1020.71 1020.18 1020.24 1020.08 1020.02 1019.70 1019.26 1018.96 1018.81 1018.74 1018.59 1018.70 1019.13 1019.40 1019.61 1019.96 1019.96 1019.70 1019.30 1019.13 1018.98 1019.09 1019.33 1019.78 1020.36 1020.69 1020.99 1021.36 1021.99 1022.51 1023.33 1024.15 1024.76 1025.46 1025.94 1026.38 1026.53
1023.59 1022.98 1022.00 1021.84 1021.75 1021.13 1020.94 1020.78 1020.78 1020.65 1020.57 1020.49 1020.13 1019.92 1019.73 1019.69 1019.60 1018.93 1019.07 1019.49 1019.72 1019.98 1020.19 1020.56 1020.64 1020.26 1019.65 1019.98 1019.88 1019.83 1019.61 1019.92 1020.53 1021.07 1021.32 1021.94 1021.92 1022.44 1023.44 1024.44 1025.25 1025.97 1026.35 1026.54 1026.64
1023.97 1023.41 1022.41 1022.03 1021.91 1021.60 1021.21 1020.72 1020.72 1020.84 1020.86 1020.70 1020.47 1020.39 1020.24 1020.02 1019.93 1019.57 1019.64 1019.88 1020.22 1020.71 1021.11 1021.13 1021.05 1020.62 1020.25 1019.74 1020.01 1020.01 1019.95 1020.09 1020.62 1021.21 1021.13 1021.05 1021.58 1022.77 1023.61 1024.55 1025.46 1026.33 1026.89 1027.22 1027.43
1024.20 1023.59 1023.00 1022.57 1022.23 1021.56 1021.42 1021.25 1020.99 1021.03 1021.08 1020.94 1020.42 1020.43 1020.46 1020.39 1019.85 1020.17 1019.97 1020.13 1020.40 1020.93 1021.42 1021.77 1021.60 1021.12 1020.52 1020.08 1020.13 1020.11 1020.05 1020.16 1020.39 1020.73 1021.32 1020.81 1021.54 1022.81 1023.85 1024.95 1025.90 1026.70 1027.33 1027.73 1028.05
1024.09 1023.96 1023.73 1023.05 1022.46 1022.23 1022.09 1021.60 1021.18 1020.90 1021.10 1020.93 1021.00 1020.58 1020.61 1020.57 1020.32 1020.17 1020.49 1020.56 1020.67 1021.30 1021.49 1021.82 1021.68 1021.43 1021.01 1020.30 1020.18 1020.08 1019.57 1019.62 1019.77 1020.13 1020.67 1021.44 1022.25 1023.35 1024.62 1025.61 1026.60 1027.42 1028.03 1028.50 1028.89
1023.81 1023.80 1023.74 1023.26 1022.85 1022.74 1022.06 1021.50 1021.39 1021.35 1020.91 1020.65 1021.05 1021.18 1020.84 1020.82 1020.82 1020.75 1020.87 1020.93 1020.86 1021.05 1021.49 1021.94 1022.04 1022.00 1021.13 1020.73 1020.64 1020.40 1019.41 1019.65 1019.75 1020.31 1020.97 1022.18 1023.37 1024.25 1025.36 1026.33 1027.38 1028.18 1028.76 1029.21 1029.51
Wind_Speed
12 12 13 13 13 13 13 13 13 12 11 12 13 14 14 14 16 5 3 2 5 8 10 9 6 8 6 1 2 4 3 4 8 9 10 11 10 10 10 9 10 7 7 8 16
13 13 14 15 15 15 14 14 13 13 12 12 11 12 12 13 5 7 4 4 3 6 9 9 10 9 2 2 2 2 4 8 9 8 9 10 11 11 11 11 11 13 10 9 10
14 15 16 16 16 15 15 15 16 13 13 11 11 11 10 11 5 4 5 2 3 6 7 7 9 8 5 3 2 5 4 9 8 9 8 12 12 11 11 11 11 12 14 9 8
15 16 16 17 17 16 16 16 15 14 12 12 11 10 10 5 3 4 5 2 3 5 6 7 8 6 6 7 7 3 8 6 8 8 8 10 10 7 8 10 9 11 9 8 8
16 17 17 18 18 19 18 17 16 15 12 10 9 8 6 4 2 5 3 3 5 4 5 6 7 7 8 9 9 3 9 9 8 4 7 7 11 9 15 21 11 8 8 9 9
17 17 18 18 18 18 18 17 17 15 11 8 5 3 4 2 3 5 2 3 3 4 6 4 5 6 7 9 6 7 9 11 2 7 6 7 4 9 18 21 22 20 13 12 10
16 17 17 18 19 18 17 17 15 10 8 4 4 4 3 3 3 5 1 4 3 4 5 6 5 4 7 7 3 7 7 6 7 7 2 6 12 18 19 20 23 25 23 17 11
17 18 18 19 20 19 17 15 7 4 2 3 4 4 2 1 5 2 5 1 3 1 3 3 3 5 3 8 5 5 1 6 10 8 7 3 12 17 16 20 22 24 21 21 8
19 20 20 19 21 20 15 8 4 2 2 4 4 4 4 2 1 4 4 6 3 2 1 2 3 3 7 6 6 7 6 8 5 7 11 12 6 13 15 20 22 21 20 16 15
19 20 21 21 21 20 16 4 2 1 5 5 4 2 1 3 3 3 1 3 3 1 3 4 3 3 6 6 4 7 6 5 6 4 11 8 7 9 11 20 17 20 20 17 15
18 20 21 21 20 18 10 1 3 1 6 3 4 3 2 7 3 3 3 4 4 4 4 2 2 6 8 5 7 10 6 4 4 4 5 6 9 10 11 17 19 21 19 19 14
18 19 22 20 18 16 7 6 3 1 6 3 3 3 1 1 3 3 6 3 3 5 4 2 4 5 7 8 8 4 5 7 4 2 4 7 11 13 15 15 15 17 17 19 25
17 19 22 20 15 4 8 5 3 3 4 2 2 3 3 4 3 5 7 3 3 5 5 3 3 6 9 5 11 6 4 3 4 6 8 7 5 6 11 14 12 17 20 27 27
16 19 21 26 2 1 4 5 3 2 2 3 2 2 2 4 1 2 4 1 3 4 6 2 3 6 9 6 8 7 6 6 6 6 2 4 3 9 11 15 17 19 22 20 20
14 17 19 11 5 3 5 5 3 3 4 3 2 1 2 2 5 2 1 3 5 6 3 2 4 5 6 4 5 6 6 6 6 7 6 6 3 6 12 13 17 17 19 19 21
13 15 18 2 3 3 5 4 2 2 3 2 2 2 4 3 2 4 4 4 1 3 6 2 2 1 3 9 5 9 5 8 7 3 2 2 3 5 5 7 10 13 15 16 16
14 14 9 5 4 6 5 3 3 5 2 2 3 5 5 2 1 3 3 4 4 6 5 5 3 3 3 7 2 9 7 4 4 2 4 5 3 4 6 6 8 9 11 12 13
16 14 2 3 4 5 2 2 4 2 5 1 3 8 3 5 2 3 4 2 5 6 5 3 5 2 5 3 3 5 1 2 4 4 5 6 4 4 8 8 7 8 9 10 12
19 2 2 3 4 4 3 2 2 4 2 7 9 3 4 4 2 3 3 2 4 6 3 4 4 3 3 2 3 6 5 1 4 6 3 5 6 4 8 7 7 8 9 9 10
4 4 1 4 4 2 2 2 2 2 2 2 4 2 5 8 6 2 1 2 4 3 3 1 6 2 3 1 4 2 2 2 2 4 5 3 5 4 7 6 7 8 9 9 9
2 4 1 3 2 1 2 1 1 4 0 2 4 5 5 6 3 5 2 2 1 4 2 1 4 4 1 4 1 1 1 2 1 2 2 5 2 5 7 6 7 7 7 7 7
1 3 2 3 2 1 3 2 2 1 2 3 2 4 4 5 4 5 3 3 3 1 2 1 2 3 5 3 3 2 3 2 1 3 3 3 4 7 8 6 7 7 6 6 7
1 3 1 2 2 2 2 1 2 3 3 3 3 4 3 3 4 4 2 2 1 3 1 2 3 4 1 2 1 3 4 4 3 3 5 2 3 7 8 8 8 7 7 7 10
0 3 2 1 2 1 3 4 2 0 3 3 4 2 3 4 6 4 2 3 3 2 3 2 4 7 6 6 1 5 3 5 5 3 4 7 1 7 7 7 8 7 6 7 7
1 4 1 2 2 3 3 2 3 3 3 2 4 7 5 5 2 5 6 4 5 4 1 1 5 7 9 9 7 9 12 10 10 9 7 2 4 7 6 8 7 7 6 6 7
3 2 1 2 1 0 4 4 6 3 2 5 6 6 6 7 6 3 2 4 5 4 4 4 5 3 5 11 12 13 14 14 14 13 11 10 7 10 7 7 6 7 6 6 7
1 0 2 3 3 1 4 5 4 1 7 6 4 6 7 6 4 5 3 6 4 3 6 4 3 3 5 1 6 10 12 6 6 4 3 4 3 6 6 6 6 6 6 6 6
Wind_Direction
5 359 353 345 345 342 337 331 330 329 329 327 329 331 335 334 311 244 15 49 10 343 313 295 13 0 266 315 335 318 290 334 17 356 333 328 338 330 320 308 298 279 268 282 304
2 355 351 344 344 339 332 325 323 323 323 324 324 326 331 333 284 284 116 82 352 335 330 352 354 328 325 352 181 334 331 5 359 342 333 341 324 319 309 314 304 294 280 268 258
0 353 349 345 340 335 329 323 318 318 315 314 317 320 324 322 269 84 117 95 315 305 301 307 288 288 291 216 31 5 290 312 324 337 335 314 305 308 316 301 299 306 307 277 273
358 351 346 341 335 330 329 321 313 309 307 308 310 313 322 265 12 83 120 110 327 300 293 302 317 357 289 10 345 278 271 304 340 325 324 304 294 312 309 309 316 309 294 292 283
356 351 346 340 335 330 328 320 311 308 307 302 301 308 297 231 38 128 149 193 281 286 301 343 318 355 356 334 328 350 345 322 296 351 296 331 341 294 360 342 327 309 296 294 292
353 347 340 337 333 329 327 320 314 312 303 290 271 293 249 272 102 97 5 270 305 296 319 334 353 329 276 308 298 336 302 283 16 22 355 2 39 44 357 337 341 354 319 263 230
347 342 337 334 330 332 328 325 322 316 302 244 211 232 257 19 51 6 353 44 345 331 319 31 350 314 325 292 353 273 294 302 91 28 10 312 61 30 6 0 360 353 353 351 14
348 343 338 333 330 332 331 332 334 349 57 152 189 240 356 37 353 267 342 179 146 45 328 352 313 277 238 282 240 225 166 39 62 17 325 265 37 24 14 24 359 354 351 360 352
346 342 338 335 332 328 330 332 339 10 140 160 206 255 96 207 303 350 22 338 331 172 296 282 280 288 303 325 354 23 336 346 55 9 52 56 355 40 22 31 8 354 343 341 335
343 340 337 337 335 321 320 247 200 243 223 225 264 263 104 15 5 323 209 301 298 277 229 237 234 282 5 10 358 321 331 323 56 323 76 86 81 60 37 33 356 350 344 344 337
342 339 337 338 335 318 333 193 333 165 6 23 335 293 53 340 135 193 23 295 234 216 342 118 14 24 344 344 295 281 299 295 108 281 87 109 85 63 43 26 359 344 342 348 338
340 338 336 338 334 321 341 60 63 244 320 139 276 233 239 357 264 104 319 278 282 301 315 206 70 4 300 285 325 313 333 20 164 258 321 112 106 80 60 35 2 341 347 16 27
339 339 336 335 327 334 72 53 324 268 254 132 36 345 9 319 1 9 358 331 304 302 360 322 31 322 308 17 349 341 36 342 285 312 264 250 100 89 72 61 15 15 14 31 26
340 339 337 328 24 300 64 353 295 284 220 40 97 85 282 322 248 6 6 328 245 333 335 38 356 346 330 10 4 307 21 296 281 314 303 97 236 68 31 37 31 26 20 26 31
338 336 332 347 295 19 338 327 308 244 92 353 64 179 187 316 308 162 334 275 347 329 315 286 3 348 341 359 332 288 312 282 293 290 309 10 29 351 42 19 23 27 32 27 28
333 335 331 19 268 27 325 304 248 29 316 30 267 334 353 149 117 297 218 229 291 282 224 182 145 265 311 294 247 280 286 245 238 232 3 36 92 7 27 4 29 30 31 32 37
324 329 320 293 327 337 317 247 10 77 155 30 321 345 333 340 244 32 331 29 20 6 344 327 155 119 294 329 315 357 1 324 343 27 220 189 41 99 81 58 50 46 35 31 33
317 322 239 295 329 325 286 280 31 84 43 92 270 299 285 3 152 299 281 194 71 350 303 356 332 29 354 41 308 305 353 112 301 356 293 186 116 191 120 110 89 69 59 34 32
311 252 239 72 333 303 309 354 2 26 1 337 292 257 171 182 223 317 137 61 58 16 41 342 298 151 65 341 12 318 38 22 293 262 297 145 79 112 125 95 66 54 51 42 31
323 294 315 341 347 291 309 269 66 45 326 256 294 10 332 358 337 275 189 61 122 27 358 29 309 359 133 194 237 298 311 331 291 324 310 272 137 148 134 107 82 50 40 35 24
294 317 90 351 313 260 248 328 25 113 283 255 314 288 290 328 328 287 339 96 54 137 304 354 181 277 9 197 34 237 247 264 182 203 288 318 14 89 107 87 99 83 77 54 39
319 282 351 316 334 160 298 18 347 257 165 240 248 274 271 311 280 277 311 94 78 18 295 95 263 270 264 45 15 347 325 314 277 355 287 168 277 97 104 93 73 68 56 56 43
228 275 333 328 264 216 117 112 285 231 231 209 256 225 25 288 294 249 354 100 109 250 347 98 264 314 173 47 42 283 234 226 329 42 241 289 245 135 133 105 88 68 39 37 30
91 287 281 7 142 151 295 286 233 117 290 291 291 11 260 254 233 262 273 158 135 333 43 25 254 213 229 269 351 255 228 217 217 206 268 252 292 174 150 129 92 76 51 52 48
130 249 207 247 201 213 84 17 228 240 210 245 251 230 227 265 255 251 237 208 179 154 163 256 261 252 264 282 288 268 266 251 215 211 225 222 5 163 119 99 93 83 50 49 42
159 211 328 299 165 196 160 221 221 265 169 236 234 298 235 238 238 307 234 183 225 164 183 185 271 277 272 262 258 264 260 247 247 246 253 257 262 97 103 96 80 77 45 41 32
168 300 98 159 173 188 223 218 230 287 230 256 343 302 279 268 324 325 284 298 268 205 193 185 230 298 262 265 295 269 268 248 208 80 91 230 82 127 119 83 72 65 44 25 26